User: anonymous   Login
Location: Stoke Bliss
(52.2667°N, 2.5167°W)
Time: 14:51:25
(UTC+00:00)
Language:

FALCON 9 DEB - Orbit

View from above orbital plane
View from above orbital plane
View from above satellite
View from above satellite

Ground track
Ground track

The orbit data is extracted from the following two-line orbital elements,

1 46084U 20055BK  21128.89817159  .00009723  00000-0  10904-3 0  9994
2 46084  53.0149  32.6317 0014124 115.1259 245.1221 15.63337895 47473
Epoch (UTC): 08 May 2021 21:33:22
Eccentricity: 0.0014124
inclination: 53.0149°
perigee height: 368 km
apogee height: 387 km
right ascension of ascending node: 32.6317°
argument of perigee: 115.1259°
revolutions per day: 15.63337895
mean anomaly at epoch: 245.1221°
orbit number at epoch: 4747

The dashed part of the orbit path shows where the satellite is in the earth's shadow,  

DLR